Time,TemperatureF,DewpointF,PressureIn,WindDirection,WindDirectionDegrees,WindSpeedMPH,WindSpeedGustMPH,Humidity,HourlyPrecipIn,Conditions,Clouds,dailyrainin,SoftwareType,DateUTC
2013-04-10 00:01:00,72.9,52.9,29.99,East,90,3.0,4.0,38,0.00,,,0.00,meteohub,2013-04-10 04:01:00,
2013-04-10 00:02:00,72.9,52.9,29.99,East,90,3.0,4.0,38,0.00,,,0.00,meteohub,2013-04-10 04:02:00,
2013-04-10 00:03:00,72.7,52.9,29.99,East,90,3.0,4.0,38,0.00,,,0.00,meteohub,2013-04-10 04:03:00,
2013-04-10 00:04:00,72.7,52.9,29.99,East,90,7.0,7.0,38,0.00,,,0.00,meteohub,2013-04-10 04:04:00,
2013-04-10 00:09:00,72.9,52.9,29.99,East,90,3.0,7.0,38,0.00,,,0.00,meteohub,2013-04-10 04:09:00,
2013-04-10 00:14:00,72.9,52.9,29.99,East,90,2.0,7.0,38,0.00,,,0.00,meteohub,2013-04-10 04:14:00,
2013-04-10 00:19:00,72.9,53.6,29.99,NE,45,2.0,7.0,39,0.00,,,0.00,meteohub,2013-04-10 04:19:00,
2013-04-10 00:25:00,72.9,53.6,29.99,East,90,2.0,5.0,39,0.00,,,0.00,meteohub,2013-04-10 04:25:00,
2013-04-10 00:30:00,72.7,53.6,29.98,East,90,3.0,5.0,39,0.00,,,0.00,meteohub,2013-04-10 04:30:00,
2013-04-10 00:35:00,72.7,53.6,29.99,East,90,4.0,4.0,39,0.00,,,0.00,meteohub,2013-04-10 04:35:00,
2013-04-10 00:40:00,72.7,53.6,29.98,East,90,3.0,4.0,39,0.00,,,0.00,meteohub,2013-04-10 04:40:00,
2013-04-10 00:46:00,72.7,53.6,29.98,ESE,113,4.0,4.0,39,0.00,,,0.00,meteohub,2013-04-10 04:46:00,
2013-04-10 00:51:00,72.7,53.6,29.98,East,90,2.0,4.0,39,0.00,,,0.00,meteohub,2013-04-10 04:51:00,
2013-04-10 00:56:00,72.5,53.6,29.97,NE,45,3.0,5.0,39,0.00,,,0.00,meteohub,2013-04-10 04:56:00,
2013-04-10 01:01:00,72.9,53.6,29.97,NE,45,2.0,5.0,39,0.00,,,0.00,meteohub,2013-04-10 05:01:00,
2013-04-10 01:07:00,72.9,53.6,29.97,East,90,1.0,5.0,39,0.00,,,0.00,meteohub,2013-04-10 05:07:00,
2013-04-10 01:12:00,72.7,54.1,29.98,East,90,2.0,4.0,40,0.00,,,0.00,meteohub,2013-04-10 05:12:00,
2013-04-10 01:17:00,72.7,54.1,29.97,East,90,2.0,4.0,40,0.00,,,0.00,meteohub,2013-04-10 05:17:00,
2013-04-10 01:22:00,72.7,54.0,29.97,East,90,4.0,4.0,40,0.00,,,0.00,meteohub,2013-04-10 05:22:00,
2013-04-10 01:27:00,72.7,54.0,29.97,East,90,2.0,4.0,40,0.00,,,0.00,meteohub,2013-04-10 05:27:00,
2013-04-10 01:33:00,72.9,54.0,29.96,East,90,4.0,4.0,40,0.00,,,0.00,meteohub,2013-04-10 05:33:00,
2013-04-10 01:38:00,73.0,54.0,29.97,SE,135,3.0,6.0,40,0.00,,,0.00,meteohub,2013-04-10 05:38:00,
2013-04-10 01:43:00,73.0,54.0,29.97,East,90,4.0,6.0,40,0.00,,,0.00,meteohub,2013-04-10 05:43:00,
2013-04-10 01:48:00,72.9,54.0,29.96,East,90,2.0,6.0,40,0.00,,,0.00,meteohub,2013-04-10 05:48:00,
2013-04-10 01:53:00,72.7,54.0,29.96,East,90,4.0,4.0,40,0.00,,,0.00,meteohub,2013-04-10 05:53:00,
2013-04-10 01:58:00,72.7,54.0,29.96,East,90,2.0,4.0,40,0.00,,,0.00,meteohub,2013-04-10 05:58:00,
2013-04-10 02:04:00,72.5,54.0,29.96,East,90,2.0,4.0,40,0.00,,,0.00,meteohub,2013-04-10 06:04:00,
2013-04-10 02:09:00,72.5,54.0,29.96,East,90,2.0,4.0,40,0.00,,,0.00,meteohub,2013-04-10 06:09:00,
2013-04-10 02:14:00,72.5,54.7,29.95,East,90,3.0,4.0,41,0.00,,,0.00,meteohub,2013-04-10 06:14:00,
2013-04-10 02:19:00,72.5,54.0,29.95,NE,45,2.0,3.0,40,0.00,,,0.00,meteohub,2013-04-10 06:19:00,
2013-04-10 02:25:00,72.5,54.7,29.95,East,90,2.0,6.0,41,0.00,,,0.00,meteohub,2013-04-10 06:25:00,
2013-04-10 02:30:00,72.3,54.7,29.95,East,90,1.0,6.0,41,0.00,,,0.00,meteohub,2013-04-10 06:30:00,
2013-04-10 02:35:00,72.0,54.7,29.95,East,90,2.0,4.0,41,0.00,,,0.00,meteohub,2013-04-10 06:35:00,
2013-04-10 02:40:00,72.0,54.7,29.95,East,90,2.0,2.0,41,0.00,,,0.00,meteohub,2013-04-10 06:40:00,
2013-04-10 02:45:00,72.0,54.7,29.95,East,90,2.0,2.0,41,0.00,,,0.00,meteohub,2013-04-10 06:45:00,
2013-04-10 02:50:00,72.0,54.5,29.94,East,90,2.0,2.0,41,0.00,,,0.00,meteohub,2013-04-10 06:50:00,
2013-04-10 02:55:00,72.1,54.5,29.94,East,90,3.0,3.0,41,0.00,,,0.00,meteohub,2013-04-10 06:55:00,
2013-04-10 03:00:00,72.1,54.5,29.94,East,90,3.0,3.0,41,0.00,,,0.00,meteohub,2013-04-10 07:00:00,
2013-04-10 03:05:00,72.5,54.5,29.94,East,90,1.0,3.0,41,0.00,,,0.00,meteohub,2013-04-10 07:05:00,
2013-04-10 03:11:00,72.7,54.5,29.94,SE,135,3.0,4.0,41,0.00,,,0.00,meteohub,2013-04-10 07:11:00,
2013-04-10 03:16:00,73.0,54.5,29.94,East,90,3.0,4.0,41,0.00,,,0.00,meteohub,2013-04-10 07:16:00,
2013-04-10 03:21:00,73.0,54.5,29.94,SE,135,4.0,4.0,41,0.00,,,0.00,meteohub,2013-04-10 07:21:00,
2013-04-10 03:26:00,73.2,54.5,29.94,East,90,2.0,4.0,41,0.00,,,0.00,meteohub,2013-04-10 07:26:00,
2013-04-10 03:31:00,73.0,54.5,29.93,East,90,3.0,4.0,41,0.00,,,0.00,meteohub,2013-04-10 07:31:00,
2013-04-10 03:37:00,73.2,54.5,29.93,East,90,3.0,4.0,41,0.00,,,0.00,meteohub,2013-04-10 07:37:00,
2013-04-10 03:42:00,73.2,54.5,29.93,SE,135,2.0,5.0,41,0.00,,,0.00,meteohub,2013-04-10 07:42:00,
2013-04-10 03:47:00,73.4,54.5,29.93,East,90,3.0,5.0,41,0.00,,,0.00,meteohub,2013-04-10 07:47:00,
2013-04-10 03:52:00,73.4,54.5,29.93,SE,135,3.0,5.0,41,0.00,,,0.00,meteohub,2013-04-10 07:52:00,
2013-04-10 03:57:00,73.2,54.5,29.93,East,90,2.0,5.0,41,0.00,,,0.00,meteohub,2013-04-10 07:57:00,
2013-04-10 04:02:00,73.2,54.5,29.93,SE,135,3.0,5.0,41,0.00,,,0.00,meteohub,2013-04-10 08:02:00,
2013-04-10 04:07:00,73.2,54.5,29.93,East,90,3.0,4.0,41,0.00,,,0.00,meteohub,2013-04-10 08:07:00,
2013-04-10 04:12:00,73.0,54.5,29.93,East,90,4.0,4.0,41,0.00,,,0.00,meteohub,2013-04-10 08:12:00,
2013-04-10 04:17:00,73.2,54.5,29.93,East,90,2.0,4.0,41,0.00,,,0.00,meteohub,2013-04-10 08:17:00,
2013-04-10 04:23:00,73.0,54.5,29.93,SE,135,2.0,4.0,41,0.00,,,0.00,meteohub,2013-04-10 08:23:00,
2013-04-10 04:28:00,73.0,54.3,29.94,East,90,2.0,4.0,41,0.00,,,0.00,meteohub,2013-04-10 08:28:00,
2013-04-10 04:33:00,72.9,54.3,29.93,East,90,3.0,4.0,41,0.00,,,0.00,meteohub,2013-04-10 08:33:00,
2013-04-10 04:38:00,72.9,54.3,29.93,SE,135,2.0,3.0,41,0.00,,,0.00,meteohub,2013-04-10 08:38:00,
2013-04-10 04:43:00,72.9,54.3,29.93,SE,135,3.0,4.0,41,0.00,,,0.00,meteohub,2013-04-10 08:43:00,
2013-04-10 04:48:00,72.7,54.3,29.93,East,90,4.0,4.0,41,0.00,,,0.00,meteohub,2013-04-10 08:48:00,
2013-04-10 04:54:00,72.9,55.0,29.93,East,90,5.0,5.0,42,0.00,,,0.00,meteohub,2013-04-10 08:54:00,
2013-04-10 04:59:00,72.9,55.0,29.93,SE,135,2.0,5.0,42,0.00,,,0.00,meteohub,2013-04-10 08:59:00,
2013-04-10 05:04:00,72.7,55.0,29.93,East,90,1.0,5.0,42,0.00,,,0.00,meteohub,2013-04-10 09:04:00,
2013-04-10 05:09:00,72.5,55.0,29.93,East,90,1.0,5.0,42,0.00,,,0.00,meteohub,2013-04-10 09:09:00,
2013-04-10 05:14:00,72.3,55.0,29.93,East,90,2.0,4.0,42,0.00,,,0.00,meteohub,2013-04-10 09:14:00,
2013-04-10 05:19:00,72.1,55.0,29.94,East,90,1.0,2.0,42,0.00,,,0.00,meteohub,2013-04-10 09:19:00,
2013-04-10 05:24:00,72.1,55.0,29.93,East,90,2.0,2.0,42,0.00,,,0.00,meteohub,2013-04-10 09:24:00,
2013-04-10 05:30:00,72.3,55.0,29.94,East,90,2.0,2.0,42,0.00,,,0.00,meteohub,2013-04-10 09:30:00,
2013-04-10 05:35:00,72.3,55.0,29.93,East,90,2.0,2.0,42,0.00,,,0.00,meteohub,2013-04-10 09:35:00,
2013-04-10 05:40:00,72.7,55.0,29.93,SE,135,4.0,4.0,42,0.00,,,0.00,meteohub,2013-04-10 09:40:00,
2013-04-10 05:45:00,72.9,55.0,29.93,East,90,3.0,6.0,42,0.00,,,0.00,meteohub,2013-04-10 09:45:00,
2013-04-10 05:50:00,72.9,55.0,29.92,NE,45,4.0,6.0,42,0.00,,,0.00,meteohub,2013-04-10 09:50:00,
2013-04-10 05:55:00,73.0,55.0,29.92,East,90,4.0,6.0,42,0.00,,,0.00,meteohub,2013-04-10 09:55:00,
2013-04-10 06:00:00,72.9,55.0,29.92,East,90,3.0,4.0,42,0.00,,,0.00,meteohub,2013-04-10 10:00:00,
2013-04-10 06:05:00,73.0,55.0,29.92,East,90,3.0,4.0,42,0.00,,,0.00,meteohub,2013-04-10 10:05:00,
2013-04-10 06:11:00,73.0,55.0,29.92,East,90,4.0,5.0,42,0.00,,,0.00,meteohub,2013-04-10 10:11:00,
2013-04-10 06:16:00,73.2,54.9,29.92,SE,135,4.0,5.0,42,0.00,,,0.00,meteohub,2013-04-10 10:16:00,
2013-04-10 06:21:00,73.4,54.9,29.92,ESE,113,5.0,6.0,42,0.00,,,0.00,meteohub,2013-04-10 10:21:00,
2013-04-10 06:26:00,73.4,55.0,29.92,NE,45,4.0,6.0,42,0.00,,,0.00,meteohub,2013-04-10 10:26:00,
2013-04-10 06:31:00,73.4,54.9,29.93,East,90,4.0,6.0,42,0.00,,,0.00,meteohub,2013-04-10 10:31:00,
2013-04-10 06:36:00,73.4,54.9,29.93,East,90,4.0,6.0,42,0.00,,,0.00,meteohub,2013-04-10 10:36:00,
2013-04-10 06:41:00,73.4,54.9,29.93,East,90,7.0,8.0,42,0.00,,,0.00,meteohub,2013-04-10 10:41:00,
2013-04-10 06:47:00,73.6,54.9,29.93,East,90,4.0,8.0,42,0.00,,,0.00,meteohub,2013-04-10 10:47:00,
2013-04-10 06:52:00,73.6,54.9,29.93,East,90,2.0,8.0,42,0.00,,,0.00,meteohub,2013-04-10 10:52:00,
2013-04-10 06:57:00,73.4,54.9,29.93,East,90,3.0,8.0,42,0.00,,,0.00,meteohub,2013-04-10 10:57:00,
2013-04-10 07:02:00,73.2,54.9,29.93,East,90,3.0,5.0,42,0.00,,,0.00,meteohub,2013-04-10 11:02:00,
2013-04-10 07:07:00,73.0,54.9,29.94,East,90,3.0,4.0,42,0.00,,,0.00,meteohub,2013-04-10 11:07:00,
2013-04-10 07:12:00,73.2,54.9,29.94,East,90,4.0,5.0,42,0.00,,,0.00,meteohub,2013-04-10 11:12:00,
2013-04-10 07:17:00,73.2,54.9,29.94,East,90,4.0,5.0,42,0.00,,,0.00,meteohub,2013-04-10 11:17:00,
2013-04-10 07:22:00,73.2,54.9,29.93,East,90,4.0,5.0,42,0.00,,,0.00,meteohub,2013-04-10 11:22:00,
2013-04-10 07:27:00,73.2,54.9,29.94,East,90,2.0,4.0,42,0.00,,,0.00,meteohub,2013-04-10 11:27:00,
2013-04-10 07:33:00,73.6,54.9,29.94,East,90,3.0,4.0,42,0.00,,,0.00,meteohub,2013-04-10 11:33:00,
2013-04-10 07:38:00,73.8,54.9,29.94,NE,45,2.0,4.0,42,0.00,,,0.00,meteohub,2013-04-10 11:38:00,
2013-04-10 07:43:00,73.9,54.9,29.94,East,90,2.0,4.0,42,0.00,,,0.00,meteohub,2013-04-10 11:43:00,
2013-04-10 07:48:00,74.3,55.0,29.94,North,0,4.0,6.0,42,0.00,,,0.00,meteohub,2013-04-10 11:48:00,
2013-04-10 07:54:00,75.0,55.0,29.94,East,90,4.0,6.0,42,0.00,,,0.00,meteohub,2013-04-10 11:54:00,
2013-04-10 07:59:00,76.3,55.0,29.95,East,90,4.0,6.0,42,0.00,,,0.00,meteohub,2013-04-10 11:59:00,
2013-04-10 08:04:00,76.6,55.8,29.95,East,90,5.0,6.0,43,0.00,,,0.00,meteohub,2013-04-10 12:04:00,
2013-04-10 08:09:00,77.5,55.8,29.94,East,90,4.0,5.0,43,0.00,,,0.00,meteohub,2013-04-10 12:09:00,
2013-04-10 08:14:00,77.9,55.8,29.94,East,90,6.0,6.0,43,0.00,,,0.00,meteohub,2013-04-10 12:14:00,
2013-04-10 08:19:00,77.9,55.8,29.94,East,90,6.0,6.0,43,0.00,,,0.00,meteohub,2013-04-10 12:19:00,
2013-04-10 08:24:00,78.3,55.8,29.94,East,90,9.0,9.0,43,0.00,,,0.00,meteohub,2013-04-10 12:24:00,
2013-04-10 08:30:00,78.4,55.0,29.94,NE,45,12.0,12.0,42,0.00,,,0.00,meteohub,2013-04-10 12:30:00,
2013-04-10 08:35:00,78.3,55.0,29.94,East,90,11.0,14.0,42,0.00,,,0.00,meteohub,2013-04-10 12:35:00,
2013-04-10 08:40:00,78.3,54.9,29.94,East,90,10.0,15.0,42,0.00,,,0.00,meteohub,2013-04-10 12:40:00,
2013-04-10 08:45:00,78.1,55.6,29.94,East,90,10.0,15.0,43,0.00,,,0.00,meteohub,2013-04-10 12:45:00,
2013-04-10 08:51:00,78.1,55.6,29.94,East,90,11.0,15.0,43,0.00,,,0.00,meteohub,2013-04-10 12:51:00,
2013-04-10 08:56:00,78.3,55.8,29.94,NE,45,7.0,15.0,43,0.00,,,0.00,meteohub,2013-04-10 12:56:00,
2013-04-10 09:01:00,78.8,55.8,29.94,East,90,8.0,11.0,43,0.00,,,0.00,meteohub,2013-04-10 13:01:00,
2013-04-10 09:06:00,78.1,55.8,29.94,East,90,8.0,13.0,43,0.00,,,0.00,meteohub,2013-04-10 13:06:00,
2013-04-10 09:12:00,77.9,55.0,29.94,East,90,12.0,13.0,42,0.00,,,0.00,meteohub,2013-04-10 13:12:00,
2013-04-10 09:17:00,78.1,53.4,29.95,SE,135,12.0,13.0,40,0.00,,,0.00,meteohub,2013-04-10 13:17:00,
2013-04-10 09:22:00,79.2,53.4,29.95,East,90,11.0,13.0,40,0.00,,,0.00,meteohub,2013-04-10 13:22:00,
2013-04-10 09:27:00,79.2,54.0,29.96,East,90,12.0,13.0,41,0.00,,,0.00,meteohub,2013-04-10 13:27:00,
2013-04-10 09:32:00,79.0,54.0,29.95,East,90,11.0,15.0,41,0.00,,,0.00,meteohub,2013-04-10 13:32:00,
2013-04-10 09:37:00,78.6,54.1,29.95,NE,45,11.0,15.0,41,0.00,,,0.00,meteohub,2013-04-10 13:37:00,
2013-04-10 09:42:00,79.2,54.1,29.95,East,90,14.0,15.0,41,0.00,,,0.00,meteohub,2013-04-10 13:42:00,
2013-04-10 09:47:00,79.9,54.1,29.95,ENE,68,11.0,15.0,41,0.00,,,0.00,meteohub,2013-04-10 13:47:00,
2013-04-10 09:52:00,79.5,54.9,29.95,East,90,7.0,15.0,42,0.00,,,0.00,meteohub,2013-04-10 13:52:00,
2013-04-10 09:57:00,79.7,54.9,29.95,East,90,17.0,17.0,42,0.00,,,0.00,meteohub,2013-04-10 13:57:00,
2013-04-10 10:02:00,79.5,55.0,29.96,East,90,17.0,17.0,42,0.00,,,0.00,meteohub,2013-04-10 14:02:00,
2013-04-10 10:07:00,79.7,55.2,29.95,East,90,11.0,17.0,42,0.00,,,0.00,meteohub,2013-04-10 14:07:00,
2013-04-10 10:12:00,79.3,53.2,29.95,SE,135,15.0,17.0,39,0.00,,,0.00,meteohub,2013-04-10 14:12:00,
2013-04-10 10:18:00,79.2,52.2,29.96,East,90,13.0,17.0,38,0.00,,,0.00,meteohub,2013-04-10 14:18:00,
2013-04-10 10:23:00,79.9,52.9,29.96,NE,45,11.0,16.0,39,0.00,,,0.00,meteohub,2013-04-10 14:23:00,
2013-04-10 10:28:00,79.7,53.6,29.95,East,90,7.0,16.0,40,0.00,,,0.00,meteohub,2013-04-10 14:28:00,
2013-04-10 10:33:00,80.2,53.8,29.95,East,90,8.0,16.0,40,0.00,,,0.00,meteohub,2013-04-10 14:33:00,
2013-04-10 10:38:00,80.6,53.8,29.95,East,90,10.0,16.0,40,0.00,,,0.00,meteohub,2013-04-10 14:38:00,
2013-04-10 10:43:00,80.8,54.0,29.96,East,90,10.0,16.0,40,0.00,,,0.00,meteohub,2013-04-10 14:43:00,
2013-04-10 10:49:00,81.0,54.0,29.96,East,90,8.0,14.0,40,0.00,,,0.00,meteohub,2013-04-10 14:49:00,
2013-04-10 10:54:00,80.6,54.0,29.96,East,90,13.0,15.0,40,0.00,,,0.00,meteohub,2013-04-10 14:54:00,
2013-04-10 10:59:00,81.0,54.0,29.96,East,90,11.0,15.0,40,0.00,,,0.00,meteohub,2013-04-10 14:59:00,
2013-04-10 11:04:00,80.2,52.3,29.96,ENE,68,11.0,15.0,38,0.00,,,0.00,meteohub,2013-04-10 15:04:00,
2013-04-10 11:09:00,81.0,52.7,29.96,NE,45,6.0,15.0,39,0.00,,,0.00,meteohub,2013-04-10 15:09:00,
2013-04-10 11:14:00,81.7,53.4,29.96,SE,135,8.0,15.0,40,0.00,,,0.00,meteohub,2013-04-10 15:14:00,
2013-04-10 11:20:00,82.0,53.6,29.96,East,90,11.0,15.0,40,0.00,,,0.00,meteohub,2013-04-10 15:20:00,
2013-04-10 11:25:00,82.0,54.3,29.96,East,90,8.0,14.0,41,0.00,,,0.00,meteohub,2013-04-10 15:25:00,
2013-04-10 11:30:00,82.6,55.0,29.96,East,90,9.0,13.0,42,0.00,,,0.00,meteohub,2013-04-10 15:30:00,
2013-04-10 11:35:00,81.9,54.0,29.95,East,90,11.0,14.0,40,0.00,,,0.00,meteohub,2013-04-10 15:35:00,
2013-04-10 11:40:00,81.7,52.3,29.96,ESE,113,12.0,15.0,38,0.00,,,0.00,meteohub,2013-04-10 15:40:00,
2013-04-10 11:45:00,81.3,52.2,29.96,NE,45,11.0,15.0,38,0.00,,,0.00,meteohub,2013-04-10 15:45:00,
2013-04-10 11:50:00,81.1,52.2,29.96,SE,135,11.0,15.0,38,0.00,,,0.00,meteohub,2013-04-10 15:50:00,
2013-04-10 11:55:00,81.5,53.1,29.96,East,90,10.0,16.0,39,0.00,,,0.00,meteohub,2013-04-10 15:55:00,
2013-04-10 12:01:00,81.1,53.2,29.95,East,90,10.0,16.0,39,0.00,,,0.00,meteohub,2013-04-10 16:01:00,
2013-04-10 12:06:00,81.3,54.0,29.96,East,90,13.0,17.0,40,0.00,,,0.00,meteohub,2013-04-10 16:06:00,
2013-04-10 12:11:00,81.7,54.1,29.96,SE,135,9.0,17.0,40,0.00,,,0.00,meteohub,2013-04-10 16:11:00,
2013-04-10 12:16:00,81.7,54.5,29.95,East,90,14.0,17.0,40,0.00,,,0.00,meteohub,2013-04-10 16:16:00,
2013-04-10 12:21:00,81.9,54.0,29.95,East,90,8.0,15.0,39,0.00,,,0.00,meteohub,2013-04-10 16:21:00,
2013-04-10 12:26:00,81.5,52.7,29.96,East,90,12.0,15.0,37,0.00,,,0.00,meteohub,2013-04-10 16:26:00,
2013-04-10 12:31:00,81.0,52.9,29.95,East,90,13.0,15.0,37,0.00,,,0.00,meteohub,2013-04-10 16:31:00,
2013-04-10 12:37:00,81.3,53.8,29.95,East,90,15.0,18.0,38,0.00,,,0.00,meteohub,2013-04-10 16:37:00,
2013-04-10 12:42:00,82.0,54.0,29.94,East,90,15.0,18.0,38,0.00,,,0.00,meteohub,2013-04-10 16:42:00,
2013-04-10 12:47:00,81.9,54.1,29.95,East,90,16.0,18.0,38,0.00,,,0.00,meteohub,2013-04-10 16:47:00,
2013-04-10 12:52:00,81.3,53.6,29.95,East,90,12.0,16.0,37,0.00,,,0.00,meteohub,2013-04-10 16:52:00,
2013-04-10 12:57:00,82.0,52.2,29.94,East,90,15.0,16.0,35,0.00,,,0.00,meteohub,2013-04-10 16:57:00,
2013-04-10 13:03:00,82.9,52.7,29.94,East,90,17.0,17.0,36,0.00,,,0.00,meteohub,2013-04-10 17:03:00,
2013-04-10 13:08:00,82.8,53.6,29.94,SE,135,7.0,15.0,37,0.00,,,0.00,meteohub,2013-04-10 17:08:00,
2013-04-10 13:13:00,82.2,53.6,29.94,East,90,11.0,17.0,37,0.00,,,0.00,meteohub,2013-04-10 17:13:00,
2013-04-10 13:18:00,81.7,53.6,29.93,East,90,13.0,17.0,37,0.00,,,0.00,meteohub,2013-04-10 17:18:00,
2013-04-10 13:23:00,81.5,52.7,29.93,East,90,6.0,15.0,36,0.00,,,0.00,meteohub,2013-04-10 17:23:00,
2013-04-10 13:29:00,81.9,51.8,29.94,East,90,10.0,15.0,35,0.00,,,0.00,meteohub,2013-04-10 17:29:00,
2013-04-10 13:34:00,82.0,52.5,29.94,East,90,11.0,17.0,36,0.00,,,0.00,meteohub,2013-04-10 17:34:00,
2013-04-10 13:39:00,82.9,52.5,29.93,East,90,8.0,17.0,36,0.00,,,0.00,meteohub,2013-04-10 17:39:00,
2013-04-10 13:44:00,83.5,53.2,29.93,East,90,7.0,17.0,37,0.00,,,0.00,meteohub,2013-04-10 17:44:00,
2013-04-10 13:49:00,83.1,52.3,29.93,East,90,12.0,17.0,36,0.00,,,0.00,meteohub,2013-04-10 17:49:00,
2013-04-10 13:54:00,82.0,50.4,29.93,SW,225,6.0,17.0,34,0.00,,,0.00,meteohub,2013-04-10 17:54:00,
2013-04-10 14:00:00,83.1,50.9,29.93,SW,225,8.0,22.0,35,0.00,,,0.00,meteohub,2013-04-10 18:00:00,
2013-04-10 14:05:00,83.7,51.4,29.94,East,90,10.0,22.0,36,0.00,,,0.00,meteohub,2013-04-10 18:05:00,
2013-04-10 14:10:00,83.1,52.2,29.93,East,90,9.0,22.0,37,0.00,,,0.00,meteohub,2013-04-10 18:10:00,
2013-04-10 14:15:00,83.7,52.2,29.93,East,90,10.0,15.0,37,0.00,,,0.00,meteohub,2013-04-10 18:15:00,
2013-04-10 14:20:00,82.6,52.2,29.93,NE,45,15.0,18.0,37,0.00,,,0.00,meteohub,2013-04-10 18:20:00,
2013-04-10 14:25:00,82.8,52.2,29.93,East,90,12.0,18.0,37,0.00,,,0.00,meteohub,2013-04-10 18:25:00,
2013-04-10 14:31:00,82.6,50.4,29.93,East,90,10.0,18.0,35,0.00,,,0.00,meteohub,2013-04-10 18:31:00,
2013-04-10 14:36:00,82.6,50.7,29.93,East,90,9.0,17.0,36,0.00,,,0.00,meteohub,2013-04-10 18:36:00,
2013-04-10 14:41:00,82.4,51.4,29.93,East,90,7.0,15.0,37,0.00,,,0.00,meteohub,2013-04-10 18:41:00,
2013-04-10 14:46:00,83.1,52.2,29.93,East,90,8.0,15.0,38,0.00,,,0.00,meteohub,2013-04-10 18:46:00,
2013-04-10 14:52:00,82.8,52.2,29.92,East,90,10.0,15.0,38,0.00,,,0.00,meteohub,2013-04-10 18:52:00,
2013-04-10 14:57:00,82.8,52.2,29.92,East,90,15.0,15.0,38,0.00,,,0.00,meteohub,2013-04-10 18:57:00,
2013-04-10 15:02:00,82.8,52.3,29.92,East,90,10.0,15.0,38,0.00,,,0.00,meteohub,2013-04-10 19:02:00,
2013-04-10 15:07:00,82.9,50.5,29.93,East,90,14.0,15.0,36,0.00,,,0.00,meteohub,2013-04-10 19:07:00,
2013-04-10 15:12:00,82.8,50.2,29.92,SE,135,12.0,15.0,36,0.00,,,0.00,meteohub,2013-04-10 19:12:00,
2013-04-10 15:17:00,82.8,50.7,29.92,East,90,16.0,16.0,37,0.00,,,0.00,meteohub,2013-04-10 19:17:00,
2013-04-10 15:22:00,83.1,51.6,29.92,NE,45,14.0,16.0,38,0.00,,,0.00,meteohub,2013-04-10 19:22:00,
2013-04-10 15:27:00,83.1,51.6,29.91,East,90,12.0,16.0,38,0.00,,,0.00,meteohub,2013-04-10 19:27:00,
2013-04-10 15:32:00,82.9,50.9,29.91,East,90,8.0,16.0,37,0.00,,,0.00,meteohub,2013-04-10 19:32:00,
2013-04-10 15:38:00,82.6,49.8,29.91,East,90,11.0,14.0,36,0.00,,,0.00,meteohub,2013-04-10 19:38:00,
2013-04-10 15:43:00,82.2,50.5,29.91,SE,135,10.0,13.0,37,0.00,,,0.00,meteohub,2013-04-10 19:43:00,
2013-04-10 15:48:00,81.3,51.3,29.91,East,90,16.0,16.0,38,0.00,,,0.00,meteohub,2013-04-10 19:48:00,
2013-04-10 15:53:00,81.5,52.2,29.91,East,90,11.0,16.0,39,0.00,,,0.00,meteohub,2013-04-10 19:53:00,
2013-04-10 15:58:00,81.3,51.4,29.91,East,90,12.0,16.0,38,0.00,,,0.00,meteohub,2013-04-10 19:58:00,
2013-04-10 16:03:00,82.8,50.5,29.90,East,90,9.0,16.0,37,0.00,,,0.00,meteohub,2013-04-10 20:03:00,
2013-04-10 16:09:00,82.9,50.4,29.90,ENE,68,9.0,14.0,37,0.00,,,0.00,meteohub,2013-04-10 20:09:00,
2013-04-10 16:14:00,82.6,50.9,29.90,SE,135,9.0,13.0,38,0.00,,,0.00,meteohub,2013-04-10 20:14:00,
2013-04-10 16:19:00,82.0,51.8,29.90,East,90,11.0,13.0,39,0.00,,,0.00,meteohub,2013-04-10 20:19:00,
2013-04-10 16:24:00,81.1,51.3,29.89,ENE,68,11.0,13.0,38,0.00,,,0.00,meteohub,2013-04-10 20:24:00,
2013-04-10 16:30:00,81.3,50.4,29.90,East,90,11.0,15.0,37,0.00,,,0.00,meteohub,2013-04-10 20:30:00,
2013-04-10 16:35:00,81.7,50.0,29.89,East,90,8.0,17.0,37,0.00,,,0.00,meteohub,2013-04-10 20:35:00,
2013-04-10 16:40:00,82.2,51.4,29.90,ESE,113,10.0,17.0,39,0.00,,,0.00,meteohub,2013-04-10 20:40:00,
2013-04-10 16:45:00,82.4,51.6,29.90,East,90,12.0,15.0,39,0.00,,,0.00,meteohub,2013-04-10 20:45:00,
2013-04-10 16:51:00,81.9,51.8,29.89,ENE,68,11.0,15.0,39,0.00,,,0.00,meteohub,2013-04-10 20:51:00,
2013-04-10 16:56:00,82.2,51.3,29.89,East,90,11.0,15.0,38,0.00,,,0.00,meteohub,2013-04-10 20:56:00,
2013-04-10 17:01:00,81.7,50.7,29.89,East,90,16.0,16.0,37,0.00,,,0.00,meteohub,2013-04-10 21:01:00,
2013-04-10 17:06:00,81.3,51.4,29.89,ESE,113,11.0,16.0,38,0.00,,,0.00,meteohub,2013-04-10 21:06:00,
2013-04-10 17:11:00,81.3,51.6,29.88,East,90,14.0,16.0,38,0.00,,,0.00,meteohub,2013-04-10 21:11:00,
2013-04-10 17:16:00,81.7,51.8,29.89,SE,135,7.0,16.0,38,0.00,,,0.00,meteohub,2013-04-10 21:16:00,
2013-04-10 17:22:00,81.1,52.0,29.89,SE,135,12.0,14.0,38,0.00,,,0.00,meteohub,2013-04-10 21:22:00,
2013-04-10 17:27:00,81.0,50.9,29.89,East,90,10.0,14.0,36,0.00,,,0.00,meteohub,2013-04-10 21:27:00,
2013-04-10 17:32:00,81.0,51.6,29.88,East,90,9.0,13.0,37,0.00,,,0.00,meteohub,2013-04-10 21:32:00,
2013-04-10 17:37:00,80.6,51.6,29.88,SE,135,8.0,14.0,37,0.00,,,0.00,meteohub,2013-04-10 21:37:00,
2013-04-10 17:42:00,81.0,52.5,29.88,East,90,9.0,14.0,38,0.00,,,0.00,meteohub,2013-04-10 21:42:00,
2013-04-10 17:47:00,80.6,51.1,29.88,South,180,10.0,14.0,36,0.00,,,0.00,meteohub,2013-04-10 21:47:00,
2013-04-10 17:52:00,80.1,50.2,29.88,East,90,9.0,12.0,35,0.00,,,0.00,meteohub,2013-04-10 21:52:00,
2013-04-10 17:57:00,79.5,50.9,29.88,SE,135,10.0,16.0,36,0.00,,,0.00,meteohub,2013-04-10 21:57:00,
2013-04-10 18:02:00,79.3,51.6,29.88,East,90,11.0,17.0,37,0.00,,,0.00,meteohub,2013-04-10 22:02:00,
2013-04-10 18:07:00,79.3,52.5,29.87,SE,135,8.0,17.0,38,0.00,,,0.00,meteohub,2013-04-10 22:07:00,
2013-04-10 18:13:00,79.2,52.0,29.88,East,90,8.0,15.0,37,0.00,,,0.00,meteohub,2013-04-10 22:13:00,
2013-04-10 18:18:00,79.0,50.4,29.88,East,90,11.0,14.0,35,0.00,,,0.00,meteohub,2013-04-10 22:18:00,
2013-04-10 18:23:00,78.8,50.2,29.88,SSE,158,14.0,14.0,35,0.00,,,0.00,meteohub,2013-04-10 22:23:00,
2013-04-10 18:28:00,78.6,51.8,29.88,East,90,10.0,16.0,37,0.00,,,0.00,meteohub,2013-04-10 22:28:00,
2013-04-10 18:33:00,78.4,51.3,29.88,East,90,8.0,16.0,36,0.00,,,0.00,meteohub,2013-04-10 22:33:00,
2013-04-10 18:39:00,78.4,50.4,29.88,East,90,13.0,16.0,35,0.00,,,0.00,meteohub,2013-04-10 22:39:00,
2013-04-10 18:44:00,78.3,50.2,29.88,South,180,7.0,14.0,35,0.00,,,0.00,meteohub,2013-04-10 22:44:00,
2013-04-10 18:49:00,78.3,50.2,29.88,East,90,13.0,14.0,35,0.00,,,0.00,meteohub,2013-04-10 22:49:00,
2013-04-10 18:54:00,78.1,51.8,29.88,SE,135,11.0,14.0,37,0.00,,,0.00,meteohub,2013-04-10 22:54:00,
2013-04-10 18:59:00,78.1,51.3,29.88,South,180,8.0,15.0,36,0.00,,,0.00,meteohub,2013-04-10 22:59:00,
2013-04-10 19:05:00,77.9,50.2,29.88,East,90,8.0,15.0,35,0.00,,,0.00,meteohub,2013-04-10 23:05:00,
2013-04-10 19:10:00,78.1,49.3,29.88,East,90,8.0,14.0,34,0.00,,,0.00,meteohub,2013-04-10 23:10:00,
2013-04-10 19:15:00,78.1,50.0,29.88,East,90,11.0,11.0,35,0.00,,,0.00,meteohub,2013-04-10 23:15:00,
2013-04-10 19:21:00,77.9,50.7,29.88,ENE,68,5.0,11.0,36,0.00,,,0.00,meteohub,2013-04-10 23:21:00,
2013-04-10 19:26:00,77.7,50.9,29.88,SE,135,8.0,11.0,36,0.00,,,0.00,meteohub,2013-04-10 23:26:00,
2013-04-10 19:31:00,77.5,49.3,29.89,East,90,8.0,12.0,34,0.00,,,0.00,meteohub,2013-04-10 23:31:00,
2013-04-10 19:37:00,77.5,48.9,29.88,East,90,11.0,12.0,34,0.00,,,0.00,meteohub,2013-04-10 23:37:00,
2013-04-10 19:42:00,77.5,49.8,29.88,North,0,8.0,13.0,35,0.00,,,0.00,meteohub,2013-04-10 23:42:00,
2013-04-10 19:47:00,77.5,50.0,29.88,East,90,6.0,13.0,35,0.00,,,0.00,meteohub,2013-04-10 23:47:00,
2013-04-10 19:52:00,77.5,50.7,29.88,NE,45,11.0,13.0,36,0.00,,,0.00,meteohub,2013-04-10 23:52:00,
2013-04-10 19:57:00,77.5,49.1,29.88,ESE,113,9.0,11.0,34,0.00,,,0.00,meteohub,2013-04-10 23:57:00,
2013-04-10 20:02:00,77.4,48.9,29.88,East,90,11.0,11.0,34,0.00,,,0.00,meteohub,2013-04-11 00:02:00,
2013-04-10 20:07:00,77.4,49.6,29.88,East,90,13.0,13.0,35,0.00,,,0.00,meteohub,2013-04-11 00:07:00,
2013-04-10 20:12:00,77.4,49.8,29.88,East,90,10.0,14.0,35,0.00,,,0.00,meteohub,2013-04-11 00:12:00,
2013-04-10 20:17:00,77.4,50.5,29.88,North,0,10.0,16.0,36,0.00,,,0.00,meteohub,2013-04-11 00:17:00,
2013-04-10 20:22:00,77.4,50.7,29.88,East,90,12.0,16.0,36,0.00,,,0.00,meteohub,2013-04-11 00:22:00,
2013-04-10 20:27:00,77.2,50.0,29.88,East,90,8.0,16.0,35,0.00,,,0.00,meteohub,2013-04-11 00:27:00,
2013-04-10 20:32:00,77.2,49.1,29.88,East,90,9.0,12.0,34,0.00,,,0.00,meteohub,2013-04-11 00:32:00,
2013-04-10 20:37:00,77.2,50.0,29.88,East,90,9.0,12.0,35,0.00,,,0.00,meteohub,2013-04-11 00:37:00,
2013-04-10 20:42:00,77.2,50.2,29.88,NE,45,8.0,12.0,35,0.00,,,0.00,meteohub,2013-04-11 00:42:00,
2013-04-10 20:47:00,77.4,51.1,29.88,East,90,6.0,11.0,36,0.00,,,0.00,meteohub,2013-04-11 00:47:00,
2013-04-10 20:53:00,77.2,50.2,29.89,East,90,11.0,11.0,35,0.00,,,0.00,meteohub,2013-04-11 00:53:00,
2013-04-10 20:58:00,77.4,49.3,29.89,East,90,10.0,11.0,34,0.00,,,0.00,meteohub,2013-04-11 00:58:00,
2013-04-10 21:03:00,77.4,49.3,29.89,East,90,9.0,11.0,34,0.00,,,0.00,meteohub,2013-04-11 01:03:00,
2013-04-10 21:08:00,77.4,50.2,29.89,East,90,11.0,12.0,35,0.00,,,0.00,meteohub,2013-04-11 01:08:00,
2013-04-10 21:13:00,77.4,50.9,29.90,East,90,8.0,12.0,36,0.00,,,0.00,meteohub,2013-04-11 01:13:00,
2013-04-10 21:18:00,77.4,51.1,29.89,East,90,8.0,14.0,36,0.00,,,0.00,meteohub,2013-04-11 01:18:00,
2013-04-10 21:23:00,77.2,49.5,29.90,East,90,10.0,14.0,34,0.00,,,0.00,meteohub,2013-04-11 01:23:00,
2013-04-10 21:28:00,77.2,49.3,29.90,East,90,9.0,12.0,34,0.00,,,0.00,meteohub,2013-04-11 01:28:00,
2013-04-10 21:33:00,77.2,49.3,29.90,East,90,10.0,14.0,34,0.00,,,0.00,meteohub,2013-04-11 01:33:00,
2013-04-10 21:39:00,77.2,50.2,29.90,NE,45,9.0,14.0,35,0.00,,,0.00,meteohub,2013-04-11 01:39:00,
2013-04-10 21:44:00,77.2,50.2,29.90,SE,135,8.0,14.0,35,0.00,,,0.00,meteohub,2013-04-11 01:44:00,
2013-04-10 21:49:00,77.2,50.4,29.90,NE,45,8.0,14.0,35,0.00,,,0.00,meteohub,2013-04-11 01:49:00,
2013-04-10 21:54:00,77.2,49.5,29.90,East,90,7.0,14.0,34,0.00,,,0.00,meteohub,2013-04-11 01:54:00,
2013-04-10 21:59:00,77.0,49.5,29.90,SE,135,14.0,14.0,34,0.00,,,0.00,meteohub,2013-04-11 01:59:00,
2013-04-10 22:04:00,77.0,49.5,29.90,East,90,10.0,14.0,34,0.00,,,0.00,meteohub,2013-04-11 02:04:00,
2013-04-10 22:10:00,77.0,50.2,29.90,East,90,8.0,14.0,35,0.00,,,0.00,meteohub,2013-04-11 02:10:00,
2013-04-10 22:15:00,77.0,50.2,29.90,East,90,12.0,15.0,35,0.00,,,0.00,meteohub,2013-04-11 02:15:00,
2013-04-10 22:20:00,77.0,50.4,29.90,East,90,11.0,12.0,35,0.00,,,0.00,meteohub,2013-04-11 02:20:00,
2013-04-10 22:25:00,77.0,49.6,29.90,NE,45,12.0,12.0,34,0.00,,,0.00,meteohub,2013-04-11 02:25:00,
2013-04-10 22:30:00,77.2,49.5,29.91,East,90,8.0,13.0,34,0.00,,,0.00,meteohub,2013-04-11 02:30:00,
2013-04-10 22:35:00,77.0,49.3,29.91,East,90,7.0,13.0,34,0.00,,,0.00,meteohub,2013-04-11 02:35:00,
2013-04-10 22:40:00,77.0,50.2,29.91,East,90,10.0,13.0,35,0.00,,,0.00,meteohub,2013-04-11 02:40:00,
2013-04-10 22:46:00,77.0,50.2,29.90,NE,45,8.0,12.0,35,0.00,,,0.00,meteohub,2013-04-11 02:46:00,
2013-04-10 22:51:00,77.0,50.2,29.90,East,90,9.0,10.0,35,0.00,,,0.00,meteohub,2013-04-11 02:51:00,
2013-04-10 22:56:00,77.0,50.4,29.91,NE,45,12.0,12.0,35,0.00,,,0.00,meteohub,2013-04-11 02:56:00,
2013-04-10 23:02:00,77.0,49.8,29.91,East,90,11.0,12.0,34,0.00,,,0.00,meteohub,2013-04-11 03:02:00,
2013-04-10 23:07:00,77.0,49.8,29.91,East,90,8.0,12.0,34,0.00,,,0.00,meteohub,2013-04-11 03:07:00,
2013-04-10 23:12:00,77.2,49.8,29.91,East,90,8.0,16.0,34,0.00,,,0.00,meteohub,2013-04-11 03:12:00,
2013-04-10 23:17:00,77.2,50.7,29.91,South,180,8.0,16.0,35,0.00,,,0.00,meteohub,2013-04-11 03:17:00,
2013-04-10 23:22:00,77.2,50.7,29.91,East,90,15.0,16.0,35,0.00,,,0.00,meteohub,2013-04-11 03:22:00,
2013-04-10 23:27:00,77.2,50.9,29.91,ESE,113,11.0,15.0,35,0.00,,,0.00,meteohub,2013-04-11 03:27:00,
2013-04-10 23:32:00,77.2,49.1,29.90,East,90,15.0,15.0,33,0.00,,,0.00,meteohub,2013-04-11 03:32:00,
2013-04-10 23:37:00,77.2,48.7,29.91,East,90,11.0,15.0,33,0.00,,,0.00,meteohub,2013-04-11 03:37:00,
2013-04-10 23:42:00,77.2,49.5,29.90,East,90,15.0,15.0,34,0.00,,,0.00,meteohub,2013-04-11 03:42:00,
2013-04-10 23:48:00,77.2,50.2,29.90,East,90,9.0,15.0,35,0.00,,,0.00,meteohub,2013-04-11 03:48:00,
2013-04-10 23:53:00,77.2,50.2,29.90,East,90,11.0,15.0,35,0.00,,,0.00,meteohub,2013-04-11 03:53:00,
2013-04-10 23:58:00,77.0,50.2,29.90,East,90,11.0,15.0,35,0.00,,,0.00,meteohub,2013-04-11 03:58:00,